This demonstration page uses our WeatherBlox Daily Observations layout. Learn more.

Left ArrowRight Arrow

34.16533, -84.80231

Hourly Observations for May 17, 2017

Temp ( °F °C ) Dew Point ( °F °C ) Humidity (%) Winds ( mph kmh ) Pressure ( in mb ) Visibility ( mi km ) Precip ( " mm )
1:53 am 01:53 Clear 69 20.6 61 16.1 76 76 SSE 5 7 29.99 1016 10 16 0.00 0.00
2:53 am 02:53 Clear 68 20 61 16.1 78 78 SSE 5 7 29.98 1015 10 16 0.00 0.00
3:53 am 03:53 Clear 64 17.8 60 15.6 87 87 SSE 6 9 29.98 1015 10 16 0.00 0.00
4:53 am 04:53 Clear 69 20.6 59 15 70 70 SSE 8 13 29.99 1016 10 16 0.00 0.00
5:53 am 05:53 Clear 67 19.4 59 15 76 76 SSE 7 11 30.00 1016 10 16 0.00 0.00
6:53 am 06:53 Sunny 66 18.9 59 15 78 78 Calm 30.02 1017 10 16 0.00 0.00
7:53 am 07:53 Sunny 68 20 61 16.1 78 78 Calm 30.04 1017 10 16 0.00 0.00
8:53 am 08:53 Sunny 72 22.2 62 16.7 71 71 ESE 5 7 30.07 1018 10 16 0.00 0.00
9:53 am 09:53 Sunny 75 23.9 65 18.3 71 71 ESE 7 11 30.07 1018 10 16 0.00 0.00
10:53 am 10:53 Sunny 79 26.1 66 18.9 65 65 S 9 15 30.08 1019 10 16 0.00 0.00
11:53 am 11:53 Sunny 83 28.3 67 19.4 59 59 VRB 7 11 30.07 1018 10 16 0.00 0.00
12:53 pm 12:53 Sunny 85 29.4 64 17.8 50 50 SSE 12 19 30.06 1018 10 16 0.00 0.00
1:53 pm 13:53 Sunny 87 30.6 62 16.7 43 43 S 14 22 30.04 1017 10 16 0.00 0.00
2:53 pm 14:53 Sunny 87 30.6 61 16.1 42 42 SSE 10 17 30.04 1017 10 16 0.00 0.00
3:53 pm 15:53 Sunny 88 31.1 58 14.4 36 36 VRB 6 9 30.02 1017 10 16 0.00 0.00
4:53 pm 16:53 Mostly Cloudy 86 30 61 16.1 43 43 S 6 9 30.00 1016 10 16 0.00 0.00
5:53 pm 17:53 Sunny 87 30.6 64 17.8 46 46 SSE 5 7 29.98 1015 10 16 0.00 0.00
6:53 pm 18:53 Sunny 85 29.4 62 16.7 46 46 SSE 5 7 29.97 1015 10 16 0.00 0.00
7:53 pm 19:53 Sunny 81 27.2 62 16.7 53 53 S 7 11 29.96 1015 10 16 0.00 0.00
8:53 pm 20:53 Clear 79 26.1 61 16.1 54 54 S 5 7 29.97 1015 10 16 0.00 0.00
9:53 pm 21:53 Clear 74 23.3 61 16.1 64 64 SSE 6 9 29.98 1015 10 16 0.00 0.00
10:53 pm 22:53 Clear 76 24.4 59 15 56 56 SSE 6 9 29.99 1016 10 16 0.00 0.00
11:53 pm 23:53 Cloudy 76 24.4 60 15.6 58 58 Calm 30.01 1016 10 16 0.00 0.00

Powered by AerisWeather